Location: Heiligenberg
(48.5381°N, 7.3897°E)
Time: 22:23:03
(UTC+00:00)

Cosmos 1271 Rocket - Pass Details

Date: 26 May 2022
Orbit: 495 x 539 km, 81.2° (Epoch: 03 July)

Event Time Altitude Azimuth Distance (km) Brightness Sun altitude
Rises 02:24:19 0° 341° (NNW) 2,625 6.7 -10.0°
Reaches altitude 10° 02:26:33 10° 332° (NNW) 1,742 5.6 -9.7°
Maximum altitude 02:30:03 36° 266° (W) 838 3.4 -9.3°
Drops below altitude 10° 02:33:36 10° 199° (SSW) 1,751 4.8 -8.9°
Enters shadow 02:33:40 10° 199° (SSW) 1,781 4.9 -8.9°
